"SCET";"TARGET";"ELECTRON_DENSITY";"ERROR_FLAG";"ELECTRON_DENSITY_ERROR";"FREQ_FCE";"MEASURED_VALUE";"MEASURED_ITEM";"FREQ_PLASMA";"FREQ_UPPER_HYBRID";"FREQ_R_EQUALS_ZERO";"FREQ_L_EQUALS_ZERO";"ORBIT_NUMBER";"SATURN_RADIUS";"SATURN_IAU_LONGITUDE";"SATURN_SLS4_S_LONGITUDE";"SATURN_SLS4_N_LONGITUDE";"SATURN_SLS5_S_LONGITUDE";"SATURN_SLS5_N_LONGITUDE";"SATURN_LOCAL_TIME";"SATURN_KRONOGRAPHIC_LATITUDE";"SATURN_MAGNETIC_LATITUDE";"SATURN_L";"SATURN_L_OFFSET";"SATURN_SOLAR_EQUATORIAL_X";"SATURN_SOLAR_EQUATORIAL_Y";"SATURN_SOLAR_EQUATORIAL_Z";"SATURN_ALTITUDE";"ENCELADUS_ENCOUNTER_NUMBER";"ENCELADUS_RADIUS";"ENCELADUS_COROTATIONAL_X";"ENCELADUS_COROTATIONAL_Y";"ENCELADUS_COROTATIONAL_Z";"ENCELADUS_TRUE_ANOMALY";"ENCELADUS_PERIAPSIS_TIME";"JUPITER_RADIUS";"JUPITER_SYSTEMIII_LONGITUDE";"JUPITER_MAGNETIC_LATITUDE";"JUPITER_MAGNETIC_LOCAL_TIME";"JUPITER_L";"IO_PHASE";"EARTH_RADIUS";"EARTH_MAGNETIC_LATITUDE";"EARTH_LOCAL_TIME";"EARTH_L"
"[UTC]";"[0=Saturn, 1=Enceladus, 2=Jupiter, 3=Earth]";"[cm-3]";"[0=automated, 1=manual]";"[normalized density error]";"[Hz]";"[Hz]";"[0=upper hybrid frequency, 1=plasma frequency cutoff]";"[Hz]";"[Hz]";"[Hz]";"[Hz}";"[0, A, B, C, 3, 4, ... , 292, 293]";"[Rs where 1Rs=60268km]";"[degrees]";"[degrees]";"[degrees]";"[degrees]";"[degrees]";"[hours]";"[degrees]";"[degrees where offset=2293km north]";"[Rs where 1Rs=60268km]";"[Rs where 1Rs=60268km and offset=2293km north]";"[Rs where 1Rs=60268km]";"[Rs where 1Rs=60268km]";"[Rs where 1Rs=60268km]";"[km where ellipsoid a,b=60268km and c=54364km]";"[E0, E1, E2, ... , E21, E22]";"[Renc where 1Renc=252.1km]";"[Renc where 1Renc=252.1km]";"[Renc where 1Renc=252.1km]";"[Renc where 1Renc=252.1km]";"[degrees]";"[UTC]";"[Rj where 1Rj=71492km]";"[degrees]";"[degrees using JRM09 model]";"[hours using JRM09 model]";"[Rj where 1Rj=71492km]";"[degrees]";"[Re where 1Re=6378.1366km]";"[degrees]";"[hours]";"[Re where 1Re=6378.1366km]"
2008-11-16T20:03:54.704Z;0;1.0680e+01;0;     0.174;  6559.532;  30074.188; 0;  29350.115;  30074.188;  32812.562;  26253.031; 93;   4.487; 177.133;  41.064; 310.340; 345.069; 287.124;  22.157;  11.844;  11.368;   4.684;   4.474;  -3.890;   2.038;   0.921;;;;;;;;;;;;;;;;;;
2008-11-16T20:03:55.759Z;0;1.0520e+01;0;     0.137;  6559.532;  29856.662; 0;  29127.184;  29856.662;  32591.021;  26031.488; 93;   4.486; 177.141;  41.073; 310.349; 345.078; 287.133;  22.157;  11.841;  11.365;   4.684;   4.474;  -3.890;   2.038;   0.920;;;;;;;;;;;;;;;;;;
2008-11-16T20:04:26.704Z;0;1.0650e+01;0;     0.144;  6559.532;  30025.023; 0;  29299.736;  30025.023;  32762.498;  26202.965; 93;   4.485; 177.398;  41.325; 310.607; 345.328; 287.392;  22.159;  11.749;  11.273;   4.679;   4.473;  -3.891;   2.035;   0.913;;;;;;;;;;;;;;;;;;
2008-11-16T20:04:27.759Z;0;1.0660e+01;0;     0.149;  6559.532;  30049.279; 0;  29324.592;  30049.279;  32787.199;  26227.666; 93;   4.485; 177.406;  41.333; 310.616; 345.337; 287.401;  22.159;  11.746;  11.270;   4.679;   4.473;  -3.891;   2.035;   0.913;;;;;;;;;;;;;;;;;;
2008-11-16T20:04:53.329Z;0;1.1490e+01;0;     0.257;  6559.532;  31141.389; 0;  30442.711;  31141.389;  33898.641;  27339.109; 93;   4.484; 177.618;  41.542; 310.829; 345.543; 287.616;  22.161;  11.670;  11.193;   4.675;   4.472;  -3.892;   2.033;   0.907;;;;;;;;;;;;;;;;;;
2008-11-16T20:05:09.329Z;0;1.0570e+01;0;     0.114;  6557.656;  29918.199; 0;  29190.680;  29918.199;  32653.076;  26095.422; 93;   4.483; 177.751;  41.672; 310.963; 345.672; 287.750;  22.162;  11.622;  11.145;   4.672;   4.471;  -3.893;   2.032;   0.903;;;;;;;;;;;;;;;;;;
2008-11-16T20:05:25.329Z;0;1.1050e+01;0;     0.116;  6557.656;  30557.629; 0;  29845.701;  30557.629;  33304.094;  26746.438; 93;   4.482; 177.883;  41.802; 311.096; 345.801; 287.885;  22.163;  11.575;  11.098;   4.670;   4.470;  -3.893;   2.031;   0.899;;;;;;;;;;;;;;;;;;
2008-11-16T20:05:33.329Z;0;1.1290e+01;0;     0.126;  6557.656;  30873.102; 0;  30168.619;  30873.102;  33625.102;  27067.445; 93;   4.482; 177.950;  41.867; 311.163; 345.866; 287.952;  22.164;  11.551;  11.074;   4.669;   4.470;  -3.893;   2.030;   0.897;;;;;;;;;;;;;;;;;;
2008-11-16T20:05:41.329Z;0;1.1120e+01;0;     0.124;  6557.656;  30650.916; 0;  29941.205;  30650.916;  33399.027;  26841.373; 93;   4.481; 178.016;  41.932; 311.230; 345.930; 288.019;  22.164;  11.527;  11.050;   4.668;   4.469;  -3.894;   2.030;   0.895;;;;;;;;;;;;;;;;;;
2008-11-16T20:05:49.329Z;0;1.1130e+01;0;     0.109;  6557.656;  30669.340; 0;  29960.066;  30669.340;  33417.777;  26860.121; 93;   4.481; 178.082;  41.998; 311.296; 345.994; 288.087;  22.165;  11.503;  11.026;   4.666;   4.469;  -3.894;   2.029;   0.893;;;;;;;;;;;;;;;;;;
2008-11-16T20:05:57.328Z;0;1.1210e+01;0;     0.108;  6557.656;  30772.199; 0;  30065.352;  30772.199;  33522.441;  26964.785; 93;   4.481; 178.149;  42.063; 311.363; 346.059; 288.154;  22.166;  11.479;  11.002;   4.665;   4.469;  -3.894;   2.028;   0.891;;;;;;;;;;;;;;;;;;
2008-11-16T20:06:05.328Z;0;1.1240e+01;0;     0.117;  6555.668;  30805.727; 0;  30100.100;  30805.727;  33555.883;  27000.215; 93;   4.480; 178.215;  42.128; 311.430; 346.123; 288.221;  22.166;  11.456;  10.978;   4.664;   4.468;  -3.895;   2.028;   0.890;;;;;;;;;;;;;;;;;;
2008-11-16T20:06:13.328Z;0;1.1170e+01;0;     0.105;  6555.668;  30717.682; 0;  30009.984;  30717.682;  33466.297;  26910.631; 93;   4.480; 178.281;  42.193; 311.497; 346.188; 288.289;  22.167;  11.432;  10.954;   4.663;   4.468;  -3.895;   2.027;   0.888;;;;;;;;;;;;;;;;;;
2008-11-16T20:06:21.328Z;0;1.1260e+01;0;     0.108;  6555.668;  30839.410; 0;  30134.572;  30839.410;  33590.152;  27034.484; 93;   4.479; 178.347;  42.258; 311.564; 346.252; 288.356;  22.167;  11.408;  10.930;   4.662;   4.467;  -3.895;   2.027;   0.886;;;;;;;;;;;;;;;;;;
2008-11-16T20:06:29.328Z;0;1.1240e+01;0;     0.105;  6555.668;  30812.445; 0;  30106.977;  30812.445;  33562.719;  27007.051; 93;   4.479; 178.414;  42.323; 311.630; 346.316; 288.423;  22.168;  11.384;  10.906;   4.661;   4.467;  -3.896;   2.026;   0.884;;;;;;;;;;;;;;;;;;
2008-11-16T20:06:37.328Z;0;1.1280e+01;0;     0.112;  6555.668;  30861.289; 0;  30156.963;  30861.289;  33612.410;  27056.744; 93;   4.479; 178.480;  42.389; 311.697; 346.381; 288.491;  22.169;  11.360;  10.882;   4.659;   4.467;  -3.896;   2.025;   0.882;;;;;;;;;;;;;;;;;;
2008-11-16T20:06:45.328Z;0;1.1220e+01;0;     0.102;  6555.668;  30783.449; 0;  30077.301;  30783.449;  33533.215;  26977.549; 93;   4.478; 178.546;  42.454; 311.764; 346.445; 288.558;  22.169;  11.336;  10.858;   4.658;   4.466;  -3.896;   2.025;   0.880;;;;;;;;;;;;;;;;;;
2008-11-16T20:06:53.328Z;0;1.1340e+01;0;     0.108;  6555.668;  30948.799; 0;  30246.510;  30948.799;  33701.438;  27145.768; 93;   4.478; 178.613;  42.519; 311.831; 346.509; 288.626;  22.170;  11.312;  10.834;   4.657;   4.466;  -3.896;   2.024;   0.878;;;;;;;;;;;;;;;;;;
2008-11-16T20:07:01.328Z;0;1.1380e+01;0;     0.118;  6553.680;  30995.055; 0;  30294.268;  30995.055;  33747.816;  27194.137; 93;   4.477; 178.679;  42.584; 311.897; 346.574; 288.693;  22.170;  11.288;  10.810;   4.656;   4.466;  -3.897;   2.024;   0.876;;;;;;;;;;;;;;;;;;
2008-11-16T20:07:09.328Z;0;1.1320e+01;0;     0.115;  6553.680;  30913.367; 0;  30210.686;  30913.367;  33664.719;  27111.039; 93;   4.477; 178.745;  42.649; 311.964; 346.638; 288.761;  22.171;  11.264;  10.786;   4.655;   4.465;  -3.897;   2.023;   0.874;;;;;;;;;;;;;;;;;;
2008-11-16T20:07:17.328Z;0;1.1370e+01;0;     0.117;  6553.680;  30982.248; 0;  30281.166;  30982.248;  33734.789;  27181.109; 93;   4.477; 178.811;  42.714; 312.031; 346.702; 288.828;  22.172;  11.241;  10.762;   4.653;   4.465;  -3.897;   2.022;   0.872;;;;;;;;;;;;;;;;;;
2008-11-16T20:07:25.328Z;0;1.1530e+01;0;     0.114;  6553.680;  31191.707; 0;  30495.439;  31191.707;  33947.828;  27394.148; 93;   4.476; 178.878;  42.779; 312.098; 346.766; 288.896;  22.172;  11.217;  10.738;   4.652;   4.464;  -3.898;   2.022;   0.871;;;;;;;;;;;;;;;;;;
2008-11-16T20:07:33.328Z;0;1.1810e+01;0;     0.098;  6553.680;  31554.182; 0;  30866.092;  31554.182;  34316.383;  27762.705; 93;   4.476; 178.944;  42.845; 312.164; 346.831; 288.963;  22.173;  11.193;  10.714;   4.651;   4.464;  -3.898;   2.021;   0.869;;;;;;;;;;;;;;;;;;
2008-11-16T20:07:41.328Z;0;1.1510e+01;0;     0.119;  6553.680;  31158.541; 0;  30461.516;  31158.541;  33914.098;  27360.420; 93;   4.476; 179.010;  42.910; 312.231; 346.895; 289.031;  22.173;  11.169;  10.690;   4.650;   4.464;  -3.898;   2.021;   0.867;;;;;;;;;;;;;;;;;;
2008-11-16T20:07:49.328Z;0;1.1760e+01;0;     0.082;  6553.680;  31481.539; 0;  30791.826;  31481.539;  34242.535;  27688.855; 93;   4.475; 179.077;  42.975; 312.298; 346.959; 289.098;  22.174;  11.145;  10.666;   4.649;   4.463;  -3.899;   2.020;   0.865;;;;;;;;;;;;;;;;;;
2008-11-16T20:07:57.328Z;0;1.1750e+01;0;     0.122;  6553.680;  31469.354; 0;  30779.367;  31469.354;  34230.145;  27676.467; 93;   4.475; 179.143;  43.040; 312.365; 347.023; 289.166;  22.174;  11.121;  10.642;   4.648;   4.463;  -3.899;   2.019;   0.863;;;;;;;;;;;;;;;;;;
2008-11-16T20:08:05.328Z;0;1.1710e+01;0;     0.112;  6551.832;  31414.039; 0;  30723.205;  31414.039;  34173.277;  27621.445; 93;   4.474; 179.209;  43.105; 312.432; 347.087; 289.234;  22.175;  11.097;  10.618;   4.646;   4.463;  -3.899;   2.019;   0.861;;;;;;;;;;;;;;;;;;
2008-11-16T20:08:13.327Z;0;1.1940e+01;0;     0.131;  6551.832;  31712.332; 0;  31028.141;  31712.332;  34476.512;  27924.680; 93;   4.474; 179.275;  43.170; 312.498; 347.151; 289.301;  22.176;  11.073;  10.594;   4.645;   4.462;  -3.899;   2.018;   0.859;;;;;;;;;;;;;;;;;;
2008-11-16T20:08:21.327Z;0;1.2410e+01;0;     0.117;  6551.832;  32309.225; 0;  31637.943;  32309.225;  35083.008;  28531.176; 93;   4.474; 179.342;  43.236; 312.565; 347.216; 289.369;  22.176;  11.049;  10.570;   4.644;   4.462;  -3.900;   2.018;   0.857;;;;;;;;;;;;;;;;;;
2008-11-16T20:08:29.327Z;0;1.2420e+01;0;     0.116;  6551.832;  32320.949; 0;  31649.918;  32320.949;  35094.918;  28543.086; 93;   4.473; 179.408;  43.301; 312.632; 347.280; 289.437;  22.177;  11.025;  10.546;   4.643;   4.462;  -3.900;   2.017;   0.855;;;;;;;;;;;;;;;;;;
2008-11-16T20:08:37.327Z;0;1.2040e+01;0;     0.092;  6551.832;  31838.844; 0;  31157.430;  31838.844;  34605.090;  28053.258; 93;   4.473; 179.474;  43.366; 312.699; 347.344; 289.504;  22.177;  11.001;  10.522;   4.642;   4.461;  -3.900;   2.016;   0.853;;;;;;;;;;;;;;;;;;
2008-11-16T20:08:45.327Z;0;1.2510e+01;0;     0.119;  6551.832;  32431.061; 0;  31762.355;  32431.061;  35206.762;  28654.928; 93;   4.472; 179.540;  43.431; 312.765; 347.408; 289.572;  22.178;  10.977;  10.498;   4.641;   4.461;  -3.901;   2.016;   0.851;;;;;;;;;;;;;;;;;;
2008-11-16T20:08:53.327Z;0;1.2490e+01;0;     0.115;  6551.832;  32404.074; 0;  31734.801;  32404.074;  35179.352;  28627.520; 93;   4.472; 179.607;  43.496; 312.832; 347.472; 289.640;  22.179;  10.954;  10.474;   4.640;   4.460;  -3.901;   2.015;   0.850;;;;;;;;;;;;;;;;;;
2008-11-16T20:09:01.327Z;0;1.2540e+01;0;     0.119;  6550.348;  32468.674; 0;  31801.064;  32468.674;  35244.449;  28694.100; 93;   4.472; 179.673;  43.561; 312.899; 347.536; 289.707;  22.179;  10.930;  10.450;   4.638;   4.460;  -3.901;   2.015;   0.848;;;;;;;;;;;;;;;;;;
2008-11-16T20:09:09.327Z;0;1.2450e+01;0;     0.073;  6550.348;  32349.992; 0;  31679.883;  32349.992;  35123.906;  28573.559; 93;   4.471; 179.739;  43.626; 312.966; 347.600; 289.775;  22.180;  10.906;  10.426;   4.637;   4.460;  -3.901;   2.014;   0.846;;;;;;;;;;;;;;;;;;
2008-11-16T20:09:17.327Z;0;1.2490e+01;0;     0.119;  6550.348;  32405.645; 0;  31736.709;  32405.645;  35180.434;  28630.084; 93;   4.471; 179.806;  43.692; 313.032; 347.664; 289.843;  22.180;  10.882;  10.402;   4.636;   4.459;  -3.902;   2.013;   0.844;;;;;;;;;;;;;;;;;;
2008-11-16T20:09:25.327Z;0;1.2650e+01;0;     0.123;  6550.348;  32606.328; 0;  31941.596;  32606.328;  35384.242;  28833.896; 93;   4.471; 179.872;  43.757; 313.099; 347.728; 289.911;  22.181;  10.858;  10.378;   4.635;   4.459;  -3.902;   2.013;   0.842;;;;;;;;;;;;;;;;;;
2008-11-16T20:09:33.327Z;0;1.2790e+01;0;     0.129;  6550.348;  32777.602; 0;  32116.414;  32777.602;  35558.156;  29007.807; 93;   4.470; 179.938;  43.822; 313.166; 347.792; 289.979;  22.181;  10.834;  10.354;   4.634;   4.459;  -3.902;   2.012;   0.840;;;;;;;;;;;;;;;;;;
2008-11-16T20:09:41.327Z;0;1.3120e+01;0;     0.151;  6550.348;  33183.824; 0;  32530.895;  33183.824;  35970.523;  29420.176; 93;   4.470; 180.004;  43.887; 313.233; 347.856; 290.046;  22.182;  10.810;  10.330;   4.633;   4.458;  -3.903;   2.012;   0.838;;;;;;;;;;;;;;;;;;
2008-11-16T20:09:49.327Z;0;1.3830e+01;0;     0.139;  6550.348;  34031.770; 0;  33395.422;  34031.770;  36830.816;  30280.467; 93;   4.469; 180.071;  43.952; 313.299; 347.920; 290.114;  22.183;  10.786;  10.306;   4.632;   4.458;  -3.903;   2.011;   0.836;;;;;;;;;;;;;;;;;;
2008-11-16T20:09:57.327Z;0;1.2670e+01;0;     0.116;  6550.348;  32628.543; 0;  31964.273;  32628.543;  35406.801;  28856.455; 93;   4.469; 180.137;  44.017; 313.366; 347.983; 290.182;  22.183;  10.762;  10.282;   4.630;   4.458;  -3.903;   2.010;   0.834;;;;;;;;;;;;;;;;;;
2008-11-16T20:10:05.327Z;0;1.2860e+01;0;     0.100;  6549.088;  32863.137; 0;  32203.963;  32863.137;  35644.559;  29095.471; 93;   4.469; 180.203;  44.083; 313.433; 348.048; 290.250;  22.184;  10.738;  10.258;   4.629;   4.457;  -3.904;   2.010;   0.832;;;;;;;;;;;;;;;;;;
2008-11-16T20:10:13.327Z;0;1.3630e+01;0;     0.135;  6549.088;  33796.691; 0;  33156.082;  33796.691;  36591.934;  30042.846; 93;   4.468; 180.270;  44.148; 313.500; 348.113; 290.317;  22.184;  10.714;  10.234;   4.628;   4.457;  -3.904;   2.009;   0.830;;;;;;;;;;;;;;;;;;
2008-11-16T20:10:21.327Z;0;1.2750e+01;0;     0.122;  6549.088;  32731.152; 0;  32069.266;  32731.152;  35510.555;  28961.467; 93;   4.468; 180.336;  44.213; 313.567; 348.179; 290.384;  22.185;  10.690;  10.210;   4.627;   4.456;  -3.904;   2.008;   0.829;;;;;;;;;;;;;;;;;;
2008-11-16T20:10:29.327Z;0;1.3460e+01;0;     0.128;  6549.088;  33591.594; 0;  32946.996;  33591.594;  36383.867;  29834.779; 93;   4.468; 180.402;  44.278; 313.633; 348.244; 290.451;  22.186;  10.666;  10.186;   4.626;   4.456;  -3.904;   2.008;   0.827;;;;;;;;;;;;;;;;;;
2008-11-16T20:10:37.326Z;0;1.3080e+01;0;     0.102;  6549.088;  33132.773; 0;  32479.072;  33132.773;  35918.270;  29369.182; 93;   4.467; 180.468;  44.343; 313.700; 348.309; 290.518;  22.186;  10.642;  10.162;   4.625;   4.456;  -3.905;   2.007;   0.825;;;;;;;;;;;;;;;;;;
2008-11-16T20:10:45.326Z;0;1.2530e+01;0;     0.113;  6549.088;  32457.305; 0;  31789.717;  32457.305;  35232.465;  28683.377; 93;   4.467; 180.535;  44.408; 313.767; 348.375; 290.586;  22.187;  10.618;  10.137;   4.624;   4.455;  -3.905;   2.007;   0.823;;;;;;;;;;;;;;;;;;
2008-11-16T20:10:53.326Z;0;1.2950e+01;0;     0.135;  6549.088;  32976.859; 0;  32320.004;  32976.859;  35760.008;  29210.920; 93;   4.466; 180.601;  44.473; 313.834; 348.440; 290.653;  22.187;  10.594;  10.113;   4.623;   4.455;  -3.905;   2.006;   0.821;;;;;;;;;;;;;;;;;;
2008-11-16T20:11:01.326Z;0;1.3830e+01;0;     0.156;  6547.520;  34028.969; 0;  33393.125;  34028.969;  36826.973;  30279.455; 93;   4.466; 180.667;  44.539; 313.900; 348.505; 290.720;  22.188;  10.570;  10.089;   4.622;   4.455;  -3.906;   2.005;   0.819;;;;;;;;;;;;;;;;;;
2008-11-16T20:11:09.326Z;0;1.3350e+01;0;     0.124;  6547.520;  33455.363; 0;  32808.402;  33455.363;  36245.094;  29697.574; 93;   4.466; 180.733;  44.604; 313.967; 348.571; 290.787;  22.189;  10.546;  10.065;   4.620;   4.454;  -3.906;   2.005;   0.817;;;;;;;;;;;;;;;;;;
2008-11-16T20:11:17.326Z;0;1.3630e+01;0;     0.123;  6547.520;  33793.246; 0;  33152.879;  33793.246;  36587.887;  30040.365; 93;   4.465; 180.800;  44.669; 314.034; 348.636; 290.854;  22.189;  10.522;  10.041;   4.619;   4.454;  -3.906;   2.004;   0.815;;;;;;;;;;;;;;;;;;
2008-11-16T20:11:25.326Z;0;1.3680e+01;0;     0.123;  6547.520;  33849.527; 0;  33210.246;  33849.527;  36644.977;  30097.455; 93;   4.465; 180.866;  44.734; 314.101; 348.701; 290.922;  22.190;  10.498;  10.017;   4.618;   4.454;  -3.906;   2.004;   0.813;;;;;;;;;;;;;;;;;;
2008-11-16T20:11:33.326Z;0;1.3850e+01;0;     0.122;  6547.520;  34050.352; 0;  33414.914;  34050.352;  36848.660;  30301.141; 93;   4.465; 180.932;  44.799; 314.167; 348.767; 290.989;  22.190;  10.474;   9.993;   4.617;   4.453;  -3.907;   2.003;   0.811;;;;;;;;;;;;;;;;;;
2008-11-16T20:11:41.326Z;0;1.3770e+01;0;     0.120;  6547.520;  33955.902; 0;  33318.664;  33955.902;  36752.871;  30205.350; 93;   4.464; 180.999;  44.864; 314.234; 348.832; 291.056;  22.191;  10.450;   9.969;   4.616;   4.453;  -3.907;   2.002;   0.809;;;;;;;;;;;;;;;;;;
2008-11-16T20:11:49.326Z;0;1.3770e+01;0;     0.109;  6547.520;  33963.734; 0;  33326.645;  33963.734;  36760.812;  30213.293; 93;   4.464; 181.065;  44.930; 314.301; 348.898; 291.123;  22.191;  10.426;   9.945;   4.615;   4.452;  -3.907;   2.002;   0.808;;;;;;;;;;;;;;;;;;
2008-11-16T20:11:57.326Z;0;1.3970e+01;0;     0.116;  6547.520;  34200.266; 0;  33567.664;  34200.266;  37000.688;  30453.168; 93;   4.463; 181.131;  44.995; 314.368; 348.963; 291.191;  22.192;  10.402;   9.920;   4.614;   4.452;  -3.908;   2.001;   0.806;;;;;;;;;;;;;;;;;;
2008-11-16T20:12:05.326Z;0;1.3740e+01;0;     0.116;  6545.868;  33928.211; 0;  33290.766;  33928.211;  36724.199;  30178.332; 93;   4.463; 181.197;  45.060; 314.435; 349.029; 291.258;  22.193;  10.377;   9.896;   4.613;   4.452;  -3.908;   2.001;   0.804;;;;;;;;;;;;;;;;;;
2008-11-16T20:12:13.326Z;0;1.4100e+01;0;     0.121;  6545.868;  34347.707; 0;  33718.195;  34347.707;  37149.602;  30603.734; 93;   4.463; 181.264;  45.125; 314.501; 349.094; 291.325;  22.193;  10.353;   9.872;   4.612;   4.451;  -3.908;   2.000;   0.802;;;;;;;;;;;;;;;;;;
2008-11-16T20:12:29.326Z;0;1.4230e+01;0;     0.136;  6545.868;  34498.688; 0;  33871.980;  34498.688;  37302.672;  30756.805; 93;   4.462; 181.396;  45.255; 314.635; 349.225; 291.459;  22.194;  10.305;   9.824;   4.609;   4.451;  -3.909;   1.999;   0.798;;;;;;;;;;;;;;;;;;
2008-11-16T20:12:45.326Z;0;1.4150e+01;0;     0.112;  6545.868;  34402.906; 0;  33774.422;  34402.906;  37205.566;  30659.699; 93;   4.461; 181.529;  45.386; 314.768; 349.356; 291.594;  22.196;  10.257;   9.776;   4.607;   4.450;  -3.909;   1.997;   0.794;;;;;;;;;;;;;;;;;;
2008-11-16T20:12:53.326Z;0;1.4810e+01;0;     0.117;  6545.868;  35174.457; 0;  34560.008;  35174.457;  37987.574;  31441.705; 93;   4.461; 181.595;  45.451; 314.835; 349.422; 291.661;  22.196;  10.233;   9.752;   4.606;   4.450;  -3.909;   1.997;   0.792;;;;;;;;;;;;;;;;;;
2008-11-16T20:13:01.325Z;0;1.4580e+01;0;     0.122;  6545.168;  34909.336; 0;  34290.270;  34909.336;  37718.664;  31173.494; 93;   4.460; 181.661;  45.516; 314.902; 349.487; 291.728;  22.197;  10.209;   9.727;   4.605;   4.449;  -3.910;   1.996;   0.790;;;;;;;;;;;;;;;;;;
2008-11-16T20:13:09.325Z;0;1.5150e+01;0;     0.126;  6545.168;  35565.160; 0;  34957.707;  35565.160;  38383.141;  31837.973; 93;   4.460; 181.728;  45.581; 314.969; 349.553; 291.795;  22.197;  10.185;   9.703;   4.604;   4.449;  -3.910;   1.996;   0.788;;;;;;;;;;;;;;;;;;
2008-11-16T20:13:17.325Z;0;1.4630e+01;0;     0.132;  6545.168;  34968.934; 0;  34350.941;  34968.934;  37779.059;  31233.893; 93;   4.460; 181.794;  45.646; 315.035; 349.619; 291.863;  22.198;  10.161;   9.679;   4.603;   4.449;  -3.910;   1.995;   0.787;;;;;;;;;;;;;;;;;;
2008-11-16T20:13:25.325Z;0;1.5060e+01;0;     0.110;  6545.168;  35456.012; 0;  34846.656;  35456.012;  38272.574;  31727.406; 93;   4.459; 181.860;  45.711; 315.102; 349.684; 291.930;  22.198;  10.137;   9.655;   4.602;   4.448;  -3.911;   1.994;   0.785;;;;;;;;;;;;;;;;;;
2008-11-16T20:13:33.325Z;0;1.4370e+01;0;     0.146;  6545.168;  34663.934; 0;  34040.402;  34663.934;  37469.938;  30924.768; 93;   4.459; 181.926;  45.776; 315.169; 349.750; 291.997;  22.199;  10.113;   9.631;   4.601;   4.448;  -3.911;   1.994;   0.783;;;;;;;;;;;;;;;;;;
2008-11-16T20:13:41.325Z;0;1.4030e+01;0;     0.119;  6545.168;  34269.758; 0;  33638.922;  34269.758;  37070.320;  30525.150; 93;   4.459; 181.993;  45.842; 315.236; 349.816; 292.064;  22.200;  10.088;   9.607;   4.600;   4.448;  -3.911;   1.993;   0.781;;;;;;;;;;;;;;;;;;
2008-11-16T20:13:49.325Z;0;1.3980e+01;0;     0.114;  6545.168;  34203.684; 0;  33571.605;  34203.684;  37003.320;  30458.152; 93;   4.458; 182.059;  45.907; 315.302; 349.881; 292.131;  22.200;  10.064;   9.582;   4.599;   4.447;  -3.911;   1.993;   0.779;;;;;;;;;;;;;;;;;;
2008-11-16T20:13:57.325Z;0;1.4420e+01;0;     0.136;  6545.168;  34718.844; 0;  34096.316;  34718.844;  37525.594;  30980.426; 93;   4.458; 182.125;  45.972; 315.369; 349.947; 292.199;  22.201;  10.040;   9.558;   4.598;   4.447;  -3.912;   1.992;   0.777;;;;;;;;;;;;;;;;;;
2008-11-16T20:14:05.325Z;0;1.4690e+01;0;     0.118;  6544.160;  35034.188; 0;  34417.559;  35034.188;  37844.824;  31300.666; 93;   4.457; 182.192;  46.037; 315.436; 350.013; 292.266;  22.201;  10.016;   9.534;   4.596;   4.446;  -3.912;   1.991;   0.775;;;;;;;;;;;;;;;;;;
2008-11-16T20:14:13.325Z;0;1.4090e+01;0;     0.118;  6544.160;  34339.266; 0;  33709.926;  34339.266;  37140.438;  30596.277; 93;   4.457; 182.258;  46.102; 315.503; 350.079; 292.333;  22.202;   9.992;   9.510;   4.595;   4.446;  -3.912;   1.991;   0.773;;;;;;;;;;;;;;;;;;
2008-11-16T20:14:21.325Z;0;1.5140e+01;0;     0.109;  6544.160;  35554.441; 0;  34946.992;  35554.441;  38371.922;  31827.760; 93;   4.457; 182.324;  46.167; 315.570; 350.144; 292.400;  22.203;   9.968;   9.486;   4.594;   4.446;  -3.912;   1.990;   0.771;;;;;;;;;;;;;;;;;;
2008-11-16T20:14:29.325Z;0;1.4660e+01;0;     0.119;  6544.160;  35004.047; 0;  34386.875;  35004.047;  37814.281;  31270.123; 93;   4.456; 182.390;  46.233; 315.636; 350.210; 292.467;  22.203;   9.944;   9.461;   4.593;   4.445;  -3.913;   1.989;   0.769;;;;;;;;;;;;;;;;;;
2008-11-16T20:14:37.325Z;0;1.5170e+01;0;     0.100;  6544.160;  35584.391; 0;  34977.461;  35584.391;  38402.258;  31858.098; 93;   4.456; 182.457;  46.298; 315.703; 350.276; 292.535;  22.204;   9.920;   9.437;   4.592;   4.445;  -3.913;   1.989;   0.767;;;;;;;;;;;;;;;;;;
2008-11-16T20:14:45.325Z;0;1.4890e+01;0;     0.107;  6544.160;  35265.234; 0;  34652.715;  35265.234;  38078.938;  31534.775; 93;   4.456; 182.523;  46.363; 315.770; 350.342; 292.602;  22.204;   9.896;   9.413;   4.591;   4.445;  -3.913;   1.988;   0.766;;;;;;;;;;;;;;;;;;
2008-11-16T20:14:53.325Z;0;1.5160e+01;0;     0.105;  6544.160;  35574.324; 0;  34967.219;  35574.324;  38392.059;  31847.900; 93;   4.455; 182.589;  46.428; 315.837; 350.408; 292.669;  22.205;   9.871;   9.389;   4.590;   4.444;  -3.914;   1.988;   0.764;;;;;;;;;;;;;;;;;;
2008-11-16T20:15:01.325Z;0;1.5130e+01;0;     0.099;  6543.012;  35534.371; 0;  34926.789;  35534.371;  38351.176;  31808.164; 93;   4.455; 182.656;  46.493; 315.903; 350.474; 292.736;  22.206;   9.847;   9.365;   4.589;   4.444;  -3.914;   1.987;   0.762;;;;;;;;;;;;;;;;;;
2008-11-16T20:15:09.325Z;0;1.5100e+01;0;     0.099;  6543.012;  35506.121; 0;  34898.047;  35506.121;  38322.559;  31779.549; 93;   4.455; 182.722;  46.558; 315.970; 350.539; 292.803;  22.206;   9.823;   9.340;   4.588;   4.444;  -3.914;   1.986;   0.760;;;;;;;;;;;;;;;;;;
2008-11-16T20:15:17.324Z;0;1.5390e+01;0;     0.108;  6543.012;  35827.000; 0;  35224.465;  35827.000;  38647.566;  32104.555; 93;   4.454; 182.788;  46.623; 316.037; 350.605; 292.871;  22.207;   9.799;   9.316;   4.587;   4.443;  -3.914;   1.986;   0.758;;;;;;;;;;;;;;;;;;
2008-11-16T20:15:25.324Z;0;1.5230e+01;0;     0.103;  6543.012;  35650.336; 0;  35044.762;  35650.336;  38468.641;  31925.627; 93;   4.454; 182.854;  46.689; 316.104; 350.671; 292.938;  22.207;   9.775;   9.292;   4.586;   4.443;  -3.915;   1.985;   0.756;;;;;;;;;;;;;;;;;;